Location: Petruro
(41.0333°N, 14.7833°E)
Time: 02:57:49
(UTC+00:00)

IRS-1C - Visible Passes

Search period start: 23 October 2021 00:00
Search period end: 02 November 2021 00:00
Orbit: 815 x 817 km, 98.9° (Epoch: 22 October)

Date Brightness Start Highest point End Pass type
(mag) Time Alt. Az. Time Alt. Az. Time Alt. Az.
23 Oct 6.8 01:33:49 10° NNE 01:34:38 14° NE 01:34:38 14° NE visible
23 Oct 5.8 03:13:59 10° N 03:15:54 19° NNW 03:15:54 19° NNW visible
24 Oct 5.8 02:51:47 10° N 02:53:37 21° N 02:53:37 21° N visible
25 Oct 6.0 02:29:44 10° N 02:31:21 20° N 02:31:21 20° N visible
26 Oct 6.4 02:07:51 10° NNE 02:09:04 17° NNE 02:09:04 17° NNE visible
26 Oct 6.1 03:49:30 10° NNW 03:50:20 12° NNW 03:50:20 12° NNW visible
27 Oct 6.7 01:46:08 10° NNE 01:46:47 13° NNE 01:46:47 13° NNE visible
27 Oct 6.0 03:26:48 10° NNW 03:28:03 15° NNW 03:28:03 15° NNW visible
28 Oct 6.0 03:04:27 10° N 03:05:46 17° N 03:05:46 17° N visible
29 Oct 6.2 02:42:19 10° N 02:43:29 17° N 02:43:29 17° N visible
30 Oct 6.4 02:20:21 10° NNE 02:21:12 15° NNE 02:21:12 15° NNE visible
31 Oct 6.8 01:58:33 10° NNE 01:58:55 12° NNE 01:58:55 12° NNE visible
31 Oct 6.2 03:39:42 10° NNW 03:40:11 12° NNW 03:40:11 12° NNW visible
01 Nov 6.2 03:17:11 10° N 03:17:55 13° NNW 03:17:55 13° NNW visible
